Wind_Speed
30 27 24 22 18 13 12 10 13 16 18 17 15 16 15 17 19 19 23 22 20 19 18 18 19 18 18 16 15 14 15 15 15 15 14 14 13 12 11 10 9 9 9 10 11 13 14 16 17
32 30 26 23 19 14 9 11 12 15 18 17 16 15 17 17 19 21 23 23 22 20 18 19 17 17 16 14 14 14 14 14 13 13 12 11 10 8 8 8 9 10 12 14 15 17 17 18 20
35 32 29 27 23 20 11 12 11 14 17 18 18 16 16 16 18 19 20 21 22 22 20 19 18 16 15 13 14 13 13 12 11 10 8 6 5 5 6 9 11 14 15 17 19 21 22 23 24
38 34 30 27 23 20 17 14 11 11 14 17 18 17 17 18 19 18 19 20 21 22 21 20 18 16 14 14 14 13 11 10 7 5 3 2 3 6 9 12 14 17 19 21 23 25 26 26 26
42 36 33 29 25 22 18 16 13 11 13 15 17 19 19 19 20 20 20 21 22 22 21 20 18 15 15 14 13 12 10 7 4 1 2 6 9 12 14 16 18 20 22 24 26 26 26 26 26
44 40 35 30 25 22 20 18 15 11 11 13 15 17 17 18 21 23 23 22 23 23 21 19 18 16 16 14 12 10 8 6 3 4 7 10 12 14 16 19 21 23 25 26 26 25 24 25 25
45 42 36 32 29 26 21 20 18 14 12 12 13 15 16 17 20 24 24 24 24 23 22 20 17 16 15 14 12 10 8 6 6 8 11 13 16 18 21 22 24 26 26 25 25 25 25 26 26
47 44 42 37 32 27 24 21 20 16 14 12 13 14 14 17 21 25 26 26 25 22 21 18 17 16 15 14 13 12 10 9 10 12 15 17 20 22 24 25 25 24 25 26 26 26 27 29 30
50 46 42 37 33 28 24 22 21 18 17 14 14 15 14 15 18 25 26 27 25 23 20 19 17 15 13 12 13 14 13 13 14 15 18 20 22 24 24 24 24 26 27 27 28 30 32 33 33
55 50 44 38 35 32 28 27 24 22 20 17 15 15 15 15 18 22 26 27 25 22 20 19 17 16 15 14 14 14 15 16 17 19 21 22 23 22 22 24 25 25 28 30 31 32 33 33 32
59 54 47 39 36 35 32 30 26 25 21 19 16 15 15 17 18 20 23 24 22 20 20 19 17 17 16 16 16 16 17 18 19 21 22 22 21 22 23 24 26 28 31 32 33 33 33 33 32
60 57 49 44 40 38 33 31 27 25 24 20 18 16 15 17 19 21 22 22 22 21 19 18 18 18 18 17 17 18 18 19 21 21 19 21 21 23 24 27 30 32 32 32 32 32 31 30 30
59 54 52 48 42 39 37 31 30 30 27 24 22 18 16 16 17 19 19 19 20 20 20 20 19 18 18 17 18 19 19 19 18 18 19 21 23 25 28 31 32 30 29 31 32 32 30 30 29
53 58 52 50 46 43 37 36 37 32 29 26 24 21 18 17 17 18 19 19 19 19 20 19 18 18 17 17 17 17 15 15 18 18 21 24 26 29 32 32 30 28 30 33 34 34 34 34 34
55 56 56 53 50 43 40 40 36 34 31 29 27 24 20 19 18 17 16 16 17 17 17 17 17 16 15 14 13 13 15 17 19 21 23 25 29 32 32 31 28 30 32 34 35 35 35 35 36
61 59 52 55 53 52 53 42 37 34 30 30 29 26 24 21 19 18 17 15 15 15 15 14 13 13 13 12 14 15 17 19 21 23 24 28 31 31 30 28 30 32 34 36 37 36 36 36 36
52 56 56 57 54 51 52 45 41 37 35 34 33 29 28 24 21 20 19 18 16 15 15 15 14 14 14 14 16 18 21 23 25 25 27 29 33 31 28 30 31 34 36 36 36 37 38 38 39
60 56 55 55 48 48 52 45 49 41 39 36 34 32 30 26 26 24 23 21 18 17 17 16 17 16 16 18 19 21 24 26 29 29 31 35 35 31 28 31 34 35 37 39 42 43 43 41 41
59 57 52 46 49 49 52 49 45 42 41 40 39 35 32 30 32 27 24 22 21 20 20 21 21 20 20 20 22 24 27 29 31 31 34 32 30 27 28 32 35 36 37 40 43 44 44 45 44
62 54 57 53 56 50 53 51 46 47 42 40 37 37 35 38 33 29 26 25 24 25 26 24 26 25 24 24 25 28 28 31 32 34 30 29 28 29 31 33 36 39 40 44 46 47 45 45 45
63 58 58 56 55 49 55 53 51 51 48 44 43 41 40 39 35 33 29 27 28 28 27 27 28 27 27 27 27 28 29 32 36 33 29 29 30 33 35 35 39 42 42 46 49 47 46 46 46
66 57 55 55 54 52 53 51 51 51 53 48 45 41 37 36 35 35 31 30 29 30 30 29 29 30 29 29 29 29 32 34 33 34 32 33 34 36 38 39 43 45 45 49 49 47 46 46 46
63 69 59 50 54 58 55 51 49 48 53 49 48 44 38 41 40 37 34 33 33 35 32 31 32 32 32 31 30 31 31 34 35 36 36 35 38 38 40 43 46 46 48 50 48 46 46 46 45
53 67 65 46 55 56 55 55 51 47 49 53 45 41 41 40 44 40 38 37 36 36 34 34 35 35 34 33 32 33 32 34 37 39 38 38 39 40 43 45 47 49 49 51 49 46 46 45 46
41 59 63 62 55 55 45 55 54 50 50 49 47 41 38 41 43 42 42 40 39 38 38 39 38 37 36 36 36 35 34 36 38 40 40 40 39 43 45 48 49 52 53 52 49 47 46 46 43
36 50 59 60 64 60 65 63 57 53 50 43 53 42 40 45 47 46 46 43 42 40 41 41 42 40 39 39 39 39 39 40 40 40 40 41 43 46 48 49 51 54 54 49 47 47 47 43 42
38 47 49 59 48 60 66 64 62 54 52 47 43 46 40 44 45 44 47 46 43 42 42 44 44 42 41 43 42 42 42 42 41 43 43 43 45 46 47 50 53 55 51 48 46 44 43 42 38
39 40 48 51 53 53 60 60 61 56 52 49 43 45 41 45 47 46 48 47 45 44 44 43 43 42 43 44 45 45 44 44 43 45 46 47 47 48 49 52 55 52 50 46 43 42 41 38 40
36 38 42 50 55 56 61 61 57 59 55 47 45 48 46 43 49 46 49 50 48 46 47 47 43 43 45 47 46 46 45 47 47 46 47 48 49 51 50 53 54 52 48 43 40 39 39 40 39
36 35 36 41 48 54 58 57 56 58 60 61 58 50 52 49 46 48 51 51 47 46 45 44 44 46 48 48 49 46 47 47 48 49 51 51 51 52 53 56 54 46 42 38 38 38 39 38 40
Wind_Direction
195 192 187 187 187 183 178 177 180 182 186 186 182 180 170 172 180 175 173 172 169 169 162 158 153 148 145 144 142 136 125 116 108 103 93 84 76 68 60 52 39 29 16 5 356 349 343 338 333
197 195 188 188 184 180 184 188 183 184 189 188 189 186 180 174 177 183 181 176 171 173 168 159 156 152 152 153 148 136 126 117 109 98 90 83 73 62 46 28 13 3 357 351 347 342 335 332 328
200 196 192 187 185 177 209 193 187 186 191 192 193 187 185 182 181 183 186 182 175 170 168 164 162 162 161 159 148 137 128 121 114 107 94 81 62 28 8 356 350 347 345 342 339 334 332 330 328
202 199 195 189 185 190 188 188 195 188 196 196 194 193 192 190 185 181 182 180 174 169 169 170 168 170 168 161 151 143 137 130 121 110 91 40 355 344 344 342 338 336 335 335 333 331 329 328 326
205 198 197 191 187 189 190 189 197 195 195 199 197 196 199 196 188 186 184 181 177 172 172 173 175 178 174 167 162 158 152 152 152 153 323 329 332 334 332 330 329 328 328 327 326 326 325 325 325
205 202 199 192 191 194 195 195 191 199 202 199 199 199 199 201 194 187 184 185 181 177 178 181 183 185 180 178 176 177 182 189 220 285 312 319 319 321 323 323 324 324 324 324 325 325 326 324 323
207 201 202 195 194 196 199 198 193 193 201 204 205 200 199 202 199 191 187 186 184 184 184 186 190 191 189 191 195 204 214 239 273 295 302 308 314 319 321 320 320 321 321 323 325 324 323 322 321
210 206 202 197 198 196 199 199 197 195 201 201 207 207 202 202 199 195 189 187 187 189 191 193 196 195 200 206 216 227 242 261 279 292 304 311 313 315 316 318 321 322 323 322 323 326 325 322 320
211 210 204 198 199 202 203 202 204 202 202 199 204 201 195 193 197 193 192 189 189 194 197 198 203 205 212 221 234 246 256 270 283 296 302 306 310 312 316 320 322 323 322 323 324 322 319 317 315
215 215 209 201 199 206 206 206 202 202 201 197 199 196 193 195 193 195 193 192 196 200 204 208 212 219 227 235 243 254 262 273 285 294 300 305 309 314 318 319 318 318 320 322 322 320 319 316 316
214 215 210 204 202 206 206 208 202 203 201 198 195 194 195 196 197 195 197 201 204 210 215 221 223 227 234 242 252 260 267 278 287 294 301 307 310 313 316 316 318 319 320 322 323 321 319 318 317
215 216 210 209 206 208 206 210 207 205 205 201 199 194 196 202 200 201 201 206 210 216 222 226 227 232 239 248 257 265 272 281 289 297 302 306 310 312 313 315 317 320 323 324 322 321 321 320 319
213 214 213 209 212 210 207 207 211 210 203 206 201 197 197 200 208 210 210 214 217 221 225 229 232 237 245 254 262 270 279 286 293 298 301 304 306 309 314 317 319 322 323 323 320 319 319 317 314
219 215 215 208 214 212 211 208 214 212 206 207 205 201 201 201 203 213 213 214 219 224 227 230 235 243 249 256 265 272 279 289 290 294 298 302 308 314 316 319 320 320 319 321 323 321 319 315 314
216 220 214 213 213 215 213 214 213 216 210 209 208 206 205 206 205 213 217 217 221 227 231 232 238 243 249 253 261 272 281 287 288 292 299 307 313 314 318 317 317 319 321 321 320 317 313 312 312
219 216 210 211 207 213 215 215 214 216 215 213 213 211 214 212 210 217 221 221 222 225 227 229 232 236 243 253 266 274 282 284 287 294 301 309 311 312 313 313 316 315 317 318 318 317 315 313 312
208 216 211 210 212 209 213 213 216 214 215 214 214 215 217 217 217 220 224 229 231 233 234 236 237 241 249 260 271 280 283 286 288 293 297 303 306 304 308 309 312 313 316 320 321 320 319 315 313
210 212 211 217 216 213 213 211 218 214 215 217 216 218 222 221 224 222 226 231 234 238 240 238 242 248 257 267 275 281 284 287 289 293 296 296 300 304 304 306 310 314 318 322 323 319 316 313 312
214 218 215 205 221 219 215 212 217 218 217 219 219 220 223 223 227 227 230 234 237 238 242 244 250 255 264 272 279 284 287 287 289 294 296 296 296 298 300 303 308 316 321 325 322 318 314 312 312
214 211 210 211 214 219 216 213 214 216 216 221 222 221 222 226 228 230 232 236 238 241 245 249 254 259 266 273 280 284 285 287 293 297 298 294 294 296 299 303 309 312 314 317 319 317 313 312 311
212 212 206 213 214 216 218 218 216 220 219 217 216 216 221 226 229 228 231 236 239 243 246 250 256 262 267 275 281 283 285 288 294 294 295 293 296 299 301 305 309 311 313 316 318 314 311 310 312
212 207 206 215 221 220 220 215 218 219 220 218 219 221 226 233 234 235 234 240 243 246 247 253 260 264 272 277 278 283 288 290 291 293 294 296 298 299 303 307 309 311 312 315 314 311 310 310 310
213 212 212 220 220 220 214 222 218 215 217 221 221 226 231 238 239 240 238 238 241 245 250 256 261 267 271 274 275 283 287 290 292 293 294 296 296 299 304 307 307 309 309 312 310 310 309 309 313
209 209 212 215 221 225 226 220 219 221 224 222 224 231 240 238 234 239 239 240 242 249 253 257 261 265 271 271 273 280 285 287 290 291 292 292 294 301 304 305 307 307 308 309 309 308 309 312 313
206 210 213 224 226 228 221 226 221 220 226 224 228 236 236 231 232 239 242 243 246 248 254 256 260 265 269 267 273 279 284 286 289 292 291 292 297 300 304 303 306 308 309 308 307 308 311 311 311
209 204 209 218 229 232 230 227 226 226 229 232 228 234 228 229 234 239 242 246 249 249 253 255 261 264 268 266 271 280 284 287 290 292 292 292 296 301 302 302 306 306 307 307 309 310 310 309 308
215 209 207 218 219 224 231 230 232 233 239 238 241 224 234 239 242 245 245 247 251 251 253 257 257 263 264 267 272 278 282 285 290 292 291 291 294 297 299 303 306 307 307 307 310 309 307 308 312
223 220 218 216 220 228 227 230 232 235 237 238 229 230 247 249 241 245 246 247 250 248 252 257 259 264 266 267 271 277 280 283 287 290 291 290 292 294 297 303 308 307 307 307 306 304 306 307 308
223 230 225 222 221 224 226 234 235 238 236 234 237 248 245 243 230 238 240 244 249 248 255 255 260 263 263 266 271 274 279 284 287 289 287 286 289 292 298 304 304 305 304 304 302 304 305 307 308
226 226 221 223 224 229 234 239 245 243 245 244 245 252 246 246 228 234 241 242 248 248 249 253 257 259 262 266 270 275 278 285 289 288 286 285 288 293 299 299 301 300 301 299 301 303 304 306 310
Height
5819 5821 5823 5826 5832 5830 5831 5833 5833 5834 5837 5839 5841 5842 5844 5846 5848 5852 5849 5851 5853 5855 5856 5857 5858 5859 5861 5861 5862 5863 5864 5865 5865 5866 5866 5866 5866 5866 5866 5865 5865 5864 5863 5862 5861 5860 5858 5857 5855
5816 5818 5820 5824 5828 5829 5831 5832 5833 5834 5836 5838 5840 5841 5843 5844 5846 5848 5850 5851 5852 5855 5856 5858 5860 5861 5862 5863 5863 5865 5866 5866 5867 5867 5867 5868 5867 5867 5867 5866 5865 5864 5864 5863 5861 5860 5857 5855 5853
5812 5815 5818 5820 5823 5826 5833 5831 5832 5833 5835 5837 5839 5840 5842 5844 5846 5848 5850 5851 5852 5855 5857 5859 5860 5862 5863 5864 5865 5866 5867 5868 5868 5868 5868 5868 5868 5867 5867 5867 5866 5865 5864 5862 5860 5858 5856 5853 5851
5809 5812 5816 5819 5822 5824 5827 5829 5831 5832 5834 5836 5837 5839 5841 5843 5845 5847 5849 5851 5853 5855 5857 5859 5860 5862 5863 5865 5866 5866 5867 5868 5869 5869 5869 5868 5868 5868 5867 5866 5864 5863 5862 5860 5858 5855 5853 5850 5847
5804 5807 5812 5817 5819 5822 5825 5827 5829 5831 5832 5835 5836 5837 5839 5841 5843 5846 5848 5851 5853 5855 5856 5858 5860 5862 5863 5865 5866 5866 5867 5868 5869 5868 5868 5868 5867 5867 5866 5865 5863 5861 5860 5858 5855 5853 5850 5847 5844
5799 5802 5808 5815 5818 5820 5823 5825 5827 5830 5831 5832 5834 5836 5839 5840 5842 5845 5847 5850 5852 5853 5855 5857 5859 5861 5863 5864 5866 5867 5867 5867 5868 5868 5868 5867 5866 5865 5864 5863 5861 5859 5857 5855 5852 5850 5848 5845 5842
5796 5798 5807 5812 5814 5817 5821 5823 5826 5828 5829 5830 5833 5834 5837 5839 5841 5843 5846 5848 5851 5853 5855 5856 5859 5861 5863 5864 5865 5866 5866 5867 5867 5867 5866 5866 5865 5863 5862 5860 5859 5856 5854 5852 5850 5847 5845 5842 5839
5792 5795 5802 5806 5810 5815 5818 5821 5823 5826 5828 5829 5831 5833 5835 5837 5838 5841 5844 5847 5850 5852 5855 5857 5858 5860 5862 5864 5864 5865 5866 5866 5866 5865 5865 5864 5863 5861 5860 5858 5856 5853 5851 5849 5847 5845 5842 5839 5835
5787 5791 5797 5804 5808 5813 5816 5819 5821 5823 5826 5827 5829 5831 5833 5835 5837 5840 5843 5846 5849 5851 5854 5856 5858 5859 5861 5862 5863 5864 5864 5864 5864 5864 5863 5862 5861 5859 5857 5855 5853 5851 5848 5846 5844 5841 5837 5834 5831
5776 5785 5795 5800 5805 5809 5812 5815 5818 5820 5823 5825 5827 5829 5831 5834 5836 5838 5841 5844 5847 5850 5853 5855 5857 5858 5860 5861 5862 5862 5863 5863 5863 5862 5861 5860 5858 5857 5854 5852 5850 5847 5845 5843 5840 5836 5833 5829 5826
5771 5778 5790 5795 5800 5804 5807 5810 5815 5817 5821 5823 5825 5828 5829 5832 5835 5837 5841 5844 5847 5849 5852 5854 5855 5857 5858 5859 5860 5860 5861 5861 5860 5860 5859 5857 5855 5854 5852 5849 5847 5845 5842 5839 5835 5833 5829 5825 5822
5764 5774 5785 5791 5795 5799 5804 5807 5813 5815 5818 5821 5823 5825 5828 5831 5833 5836 5839 5842 5844 5847 5850 5852 5853 5854 5856 5857 5858 5858 5859 5858 5858 5857 5856 5854 5852 5850 5848 5847 5844 5841 5838 5835 5832 5829 5825 5822 5818
5757 5769 5776 5785 5790 5795 5798 5804 5808 5810 5814 5817 5820 5823 5826 5828 5832 5835 5837 5840 5842 5845 5846 5849 5850 5852 5853 5855 5856 5856 5856 5856 5855 5854 5853 5851 5849 5847 5845 5843 5839 5836 5834 5831 5828 5825 5821 5817 5813
5753 5761 5770 5777 5784 5790 5794 5799 5801 5807 5811 5815 5818 5821 5823 5826 5829 5833 5835 5837 5839 5842 5844 5846 5848 5850 5851 5852 5853 5853 5853 5853 5853 5851 5849 5848 5846 5844 5841 5838 5835 5833 5830 5827 5823 5820 5816 5813 5809
5747 5753 5761 5770 5777 5783 5789 5791 5799 5802 5808 5811 5815 5818 5821 5823 5826 5830 5833 5834 5837 5839 5841 5843 5845 5846 5848 5849 5849 5850 5850 5850 5849 5848 5846 5845 5843 5840 5838 5835 5832 5829 5827 5823 5819 5815 5811 5808 5804
5739 5743 5750 5764 5771 5777 5781 5789 5796 5800 5805 5809 5812 5815 5818 5820 5823 5827 5830 5832 5834 5836 5839 5840 5842 5843 5845 5845 5846 5847 5847 5846 5846 5845 5844 5842 5840 5837 5834 5831 5829 5826 5823 5819 5815 5811 5807 5804 5799
5727 5737 5747 5755 5762 5769 5774 5784 5789 5795 5799 5804 5808 5811 5814 5818 5821 5823 5827 5829 5832 5834 5836 5838 5839 5841 5842 5843 5843 5843 5843 5842 5842 5841 5841 5839 5836 5833 5831 5828 5825 5822 5818 5814 5811 5806 5802 5797 5793
5724 5730 5740 5749 5756 5762 5768 5779 5779 5788 5794 5800 5804 5806 5810 5815 5817 5819 5823 5825 5828 5831 5834 5835 5836 5837 5838 5839 5840 5840 5839 5838 5837 5837 5836 5834 5831 5829 5827 5823 5820 5817 5813 5809 5805 5801 5796 5791 5786
5720 5727 5736 5746 5749 5757 5763 5772 5778 5784 5789 5792 5797 5801 5807 5810 5811 5815 5819 5822 5825 5828 5830 5831 5833 5834 5834 5835 5836 5835 5835 5834 5833 5832 5831 5828 5827 5824 5821 5818 5815 5812 5808 5803 5798 5794 5790 5786 5780
5711 5720 5730 5737 5742 5751 5758 5765 5771 5775 5782 5788 5794 5797 5801 5801 5808 5811 5814 5818 5821 5823 5825 5827 5829 5830 5830 5831 5831 5831 5830 5829 5828 5827 5826 5823 5821 5819 5816 5813 5810 5806 5802 5798 5793 5788 5783 5778 5773
5703 5713 5723 5730 5737 5744 5748 5758 5763 5768 5774 5779 5783 5788 5792 5796 5803 5806 5809 5813 5815 5818 5820 5821 5823 5825 5825 5826 5826 5826 5824 5824 5822 5821 5820 5817 5816 5813 5810 5808 5804 5800 5796 5792 5787 5781 5775 5771 5766
5696 5708 5717 5724 5730 5736 5742 5748 5754 5761 5769 5773 5780 5784 5788 5793 5797 5800 5804 5807 5811 5812 5813 5816 5818 5819 5819 5820 5820 5820 5819 5818 5816 5814 5814 5811 5809 5807 5804 5801 5798 5794 5790 5785 5779 5773 5768 5763 5758
5691 5702 5710 5716 5722 5728 5734 5741 5750 5755 5760 5766 5772 5779 5784 5787 5791 5795 5799 5801 5803 5805 5808 5811 5812 5813 5813 5814 5814 5814 5813 5811 5809 5808 5806 5804 5802 5800 5797 5794 5790 5786 5782 5776 5770 5766 5761 5755 5750
5681 5691 5702 5710 5713 5717 5727 5735 5742 5746 5754 5761 5768 5773 5778 5780 5784 5788 5792 5794 5796 5800 5803 5805 5805 5806 5807 5807 5808 5808 5808 5805 5803 5801 5799 5797 5795 5793 5790 5787 5783 5779 5773 5768 5762 5757 5753 5748 5742
5673 5685 5693 5698 5699 5709 5719 5724 5733 5739 5746 5756 5763 5768 5771 5773 5777 5781 5784 5788 5790 5795 5796 5797 5798 5799 5800 5801 5802 5802 5801 5800 5797 5795 5792 5789 5788 5786 5783 5780 5776 5772 5765 5759 5754 5750 5745 5740 5735
5671 5678 5683 5687 5694 5704 5708 5712 5720 5733 5740 5749 5754 5761 5764 5766 5770 5773 5777 5781 5784 5787 5789 5791 5791 5791 5793 5793 5795 5795 5794 5793 5791 5788 5786 5784 5782 5779 5776 5773 5768 5763 5756 5751 5747 5743 5738 5732 5726
5663 5666 5675 5683 5690 5694 5702 5712 5718 5730 5734 5741 5747 5753 5757 5760 5766 5768 5770 5774 5777 5780 5782 5783 5783 5784 5785 5786 5787 5786 5786 5785 5783 5780 5779 5778 5775 5772 5769 5765 5760 5754 5748 5743 5739 5734 5729 5724 5720
5658 5665 5669 5675 5684 5689 5695 5702 5710 5717 5726 5732 5738 5746 5749 5752 5755 5759 5762 5767 5768 5770 5773 5774 5775 5777 5778 5778 5778 5778 5778 5776 5774 5772 5771 5769 5767 5764 5760 5756 5751 5745 5740 5735 5730 5725 5720 5716 5711
5653 5657 5663 5670 5677 5681 5687 5695 5702 5708 5715 5722 5728 5732 5738 5741 5744 5749 5753 5756 5759 5761 5763 5765 5767 5768 5769 5769 5769 5770 5769 5767 5766 5765 5763 5761 5758 5755 5751 5747 5742 5736 5731 5727 5721 5717 5713 5709 5705
5647 5652 5656 5662 5670 5676 5683 5690 5693 5700 5707 5713 5718 5723 5727 5731 5734 5739 5744 5748 5750 5751 5754 5756 5757 5758 5759 5760 5761 5760 5759 5759 5757 5755 5753 5751 5748 5744 5741 5736 5732 5726 5722 5718 5713 5709 5706 5702 5697